This demonstration page uses our WeatherBlox Daily Observations layout. Learn more.

Left ArrowRight Arrow

Hourly Observations for January 17, 2017

Temp ( °F °C ) Dew Point ( °F °C ) Humidity (%) Winds ( mph kmh ) Pressure ( in mb ) Visibility ( mi km ) Precip ( " mm )
12:34 am 00:34 Cloudy with Mist and Fog 39 4 37 3 93 93 Calm 30.15 1021 5 8 0.00 0.00
12:53 am 00:53 Cloudy with Mist and Fog 39 3.9 38 3.3 96 96 Calm 30.14 1021 6 10 0.00 0.00
1:53 am 01:53 Cloudy with Mist and Fog 40 4.4 39 3.9 97 97 Calm 30.14 1021 5 8 0.00 0.00
2:20 am 02:20 Cloudy with Mist and Fog 39 4 39 4 100 100 Calm 30.15 1021 5 8 0.00 0.00
2:53 am 02:53 Cloudy with Mist and Fog 41 5 39 3.9 93 93 Calm 30.14 1021 5 8 0.00 0.00
3:53 am 03:53 Cloudy with Mist and Fog 41 5 39 3.9 93 93 Calm 30.13 1020 5 8 0.00 0.00
4:53 am 04:53 Cloudy with Mist and Fog 41 5 39 3.9 93 93 W 6 9 30.14 1021 6 10 0.00 0.00
5:53 am 05:53 Cloudy with Mist and Fog 42 5.6 39 3.9 89 89 NNE 3 6 30.13 1020 5 8 0.00 0.00
6:25 am 06:25 Cloudy with Mist and Fog 42 5.6 39 3.9 89 89 NW 3 6 30.15 1021 5 8 0.00 0.00
6:53 am 06:53 Cloudy with Mist and Fog 42 5.6 39 3.9 89 89 Calm 30.14 1021 5 8 0.00 0.00
7:53 am 07:53 Cloudy with Mist and Fog 42 5.6 39 3.9 89 89 NW 6 9 30.16 1021 4 6 0.00 0.00
8:53 am 08:53 Cloudy with Mist and Fog 42 5.6 39 3.9 89 89 Calm 30.17 1022 4 6 0.00 0.00
9:53 am 09:53 Cloudy with Mist and Fog 42 5.6 39 3.9 89 89 N 7 11 30.19 1022 4 6 0.00 0.00
10:49 am 10:49 Cloudy with Haze 45 7 39 4 81 81 Calm 30.18 1022 5 8 0.00 0.00
10:53 am 10:53 Cloudy with Haze 44 6.7 39 3.9 83 83 Calm 30.20 1023 5 8 0.00 0.00
11:19 am 11:19 Hazy 44 6.7 39 3.9 83 83 Calm 30.18 1022 5 8 0.00 0.00
11:53 am 11:53 Hazy 45 7.2 39 3.9 80 80 Calm 30.15 1021 6 10 0.00 0.00
12:53 pm 12:53 Hazy 47 8.3 40 4.4 77 77 SW 5 7 30.13 1020 6 10 0.00 0.00
1:53 pm 13:53 Hazy 47 8.3 40 4.4 77 77 Calm 30.10 1019 6 10 0.00 0.00
2:53 pm 14:53 Hazy 48 8.9 40 4.4 74 74 SW 3 6 30.10 1019 6 10 0.00 0.00
3:53 pm 15:53 Hazy 49 9.4 40 4.4 71 71 Calm 30.11 1020 6 10 0.00 0.00
4:53 pm 16:53 Hazy 47 8.3 41 5 80 80 SE 6 9 30.11 1020 5 8 0.00 0.00
5:53 pm 17:53 Hazy 46 7.8 41 5 83 83 Calm 30.11 1020 5 8 0.00 0.00
6:53 pm 18:53 Cloudy with Haze 46 7.8 41 5 83 83 WNW 3 6 30.12 1020 4 6 0.00 0.00
7:53 pm 19:53 Cloudy with Mist and Fog 45 7.2 43 6.1 93 93 S 3 6 30.11 1020 4 6 0.00 0.00
8:53 pm 20:53 Cloudy with Light Rain 45 7.2 42 5.6 90 90 ESE 6 9 30.11 1020 3 5 0.00 0.00
9:53 pm 21:53 Cloudy with Mist and Fog 45 7.2 43 6.1 93 93 WSW 3 6 30.11 1020 5 8 0.01 0.25
10:53 pm 22:53 Cloudy with Light Rain 45 7.2 43 6.1 93 93 Calm 30.12 1020 4 6 0.01 0.25
11:53 pm 23:53 Cloudy with Light Rain 44 6.7 43 6.1 96 96 ESE 5 7 30.11 1020 3 5 0.01 0.25

Powered by AerisWeather